This is the latest recevied weather packets stored in our database for station/object N4NVD-13. If no packets are shown the sender has not sent any weather packets the latest 10 day(s).
| Time | Temp. | Humidity | Pressure | Rain* | Wind** | Luminosity | Snow |
|---|---|---|---|---|---|---|---|
| 1777831256 | 25° C | 50% | 1020.9 hPa | 0 mm | - | 867 W/m² | - |
| 1777830954 | 25° C | 45% | 1021.1 hPa | 0 mm | - | 765 W/m² | - |
| 1777830651 | 25° C | 47% | 1021.4 hPa | 0 mm | - | 761 W/m² | - |
| 1777830348 | 25.56° C | 46% | 1021.2 hPa | 0 mm | - | 810 W/m² | - |
| 1777830044 | 25.56° C | 44% | 1021.4 hPa | 0 mm | - | 782 W/m² | - |
| 1777829739 | 25° C | 49% | 1021.9 hPa | 0 mm | - | 744 W/m² | - |
| 1777829436 | 25° C | 47% | 1021.8 hPa | 0 mm | - | 805 W/m² | - |
| 1777829134 | 24.44° C | 51% | 1021.7 hPa | 0 mm | - | 789 W/m² | - |
| 1777828830 | 24.44° C | 53% | 1021.8 hPa | 0 mm | - | 760 W/m² | - |
| 1777828527 | 23.89° C | 51% | 1021.9 hPa | 0 mm | - | 722 W/m² | - |
| 1777828224 | 23.89° C | 55% | 1021.9 hPa | 0 mm | - | 744 W/m² | - |
| 1777827920 | 23.89° C | 52% | 1022.1 hPa | 0 mm | - | 752 W/m² | - |
| 1777827618 | 23.89° C | 57% | 1022.3 hPa | 0 mm | - | 685 W/m² | - |
| 1777827315 | 23.89° C | 53% | 1022.2 hPa | 0 mm | - | 541 W/m² | - |
| 1777827011 | 23.89° C | 52% | 1022.3 hPa | 0 mm | - | 774 W/m² | - |
| 1777826709 | 24.44° C | 52% | 1022.4 hPa | 0 mm | - | 840 W/m² | - |
| 1777826405 | 23.89° C | 56% | 1022.5 hPa | 0 mm | - | 652 W/m² | - |
| 1777826103 | 24.44° C | 56% | 1022.4 hPa | 0 mm | - | 703 W/m² | - |
| 1777825799 | 23.89° C | 56% | 1022.3 hPa | 0 mm | - | 746 W/m² | - |
| 1777825497 | 23.33° C | 58% | 1022.5 hPa | 0 mm | - | 767 W/m² | - |
| 1777825194 | 23.33° C | 65% | 1022.4 hPa | 0 mm | - | 820 W/m² | - |
| 1777824890 | 22.78° C | 61% | 1022.4 hPa | 0 mm | - | 807 W/m² | - |
| 1777824586 | 23.33° C | 63% | 1022.2 hPa | 0 mm | - | 779 W/m² | - |
| 1777824284 | 22.78° C | 59% | 1022.3 hPa | 0 mm | - | 795 W/m² | - |
| 1777823978 | 22.78° C | 60% | 1022.4 hPa | 0 mm | - | 752 W/m² | - |
* Rain latest hour (hover to see other rain measurements)
** Current wind speed in m/s (hover to see current wind gust speed)